TimeCST,TemperatureF,Dew PointF,Humidity,Sea Level PressureIn,VisibilityMPH,Wind Direction,Wind SpeedMPH,Gust SpeedMPH,PrecipitationIn,Events,Conditions,WindDirDegrees,DateUTC
12:15 AM,75.4,70.7,85,29.81,5.0,South,6.9,-,N/A,,Clear,170,2012-12-10 06:15:00
12:35 AM,75.6,70.9,85,29.80,5.0,South,6.9,-,N/A,,Haze,170,2012-12-10 06:35:00
12:55 AM,75.6,70.7,85,29.80,5.0,South,5.8,-,N/A,,Haze,170,2012-12-10 06:55:00
1:15 AM,75.7,70.9,85,29.79,5.0,South,6.9,-,N/A,,Haze,170,2012-12-10 07:15:00
1:35 AM,75.7,70.9,85,29.79,5.0,South,6.9,-,N/A,,Haze,180,2012-12-10 07:35:00
1:55 AM,75.9,70.9,84,29.79,5.0,South,5.8,-,N/A,,Haze,180,2012-12-10 07:55:00
2:15 AM,75.4,70.7,85,29.79,5.0,South,4.6,-,N/A,,Clear,180,2012-12-10 08:15:00
2:55 AM,74.3,70.3,87,29.78,4.0,South,5.8,-,N/A,,Clear,170,2012-12-10 08:55:00
3:15 AM,73.9,70.3,88,29.78,4.0,South,4.6,-,N/A,,Clear,180,2012-12-10 09:15:00
3:35 AM,73.6,70.2,89,29.78,4.0,South,4.6,-,N/A,,Clear,170,2012-12-10 09:35:00
3:55 AM,73.2,69.8,89,29.78,3.0,South,4.6,-,N/A,,Clear,170,2012-12-10 09:55:00
4:15 AM,73.0,69.8,90,29.79,3.0,South,3.5,-,N/A,,Clear,190,2012-12-10 10:15:00
4:35 AM,72.5,69.3,90,29.78,2.5,SSW,4.6,-,N/A,,Clear,200,2012-12-10 10:35:00
4:55 AM,71.4,68.4,90,29.80,2.5,NNW,5.8,-,N/A,,Mist,330,2012-12-10 10:55:00
5:15 AM,70.7,68.0,91,29.81,1.8,NNW,4.6,-,N/A,,Scattered Clouds,340,2012-12-10 11:15:00
5:35 AM,70.3,67.8,92,29.82,1.2,NNW,5.8,-,N/A,,Scattered Clouds,340,2012-12-10 11:35:00
5:55 AM,70.9,68.5,92,29.83,1.5,NNW,6.9,-,N/A,,Overcast,330,2012-12-10 11:55:00
6:15 AM,70.9,68.5,92,29.86,1.0,NW,6.9,-,N/A,Rain,Heavy Rain,320,2012-12-10 12:15:00
6:35 AM,70.2,68.0,93,29.87,0.5,NNW,9.2,-,N/A,Rain,Heavy Rain,330,2012-12-10 12:35:00
6:55 AM,70.9,68.5,92,29.89,2.0,NNW,5.8,-,N/A,,Overcast,330,2012-12-10 12:55:00
7:15 AM,61.9,58.8,90,29.93,5.0,North,26.5,32.2,N/A,,Overcast,360,2012-12-10 13:15:00
7:35 AM,62.2,54.1,75,29.96,4.0,North,20.7,34.5,N/A,,Haze,360,2012-12-10 13:35:00
7:55 AM,62.1,51.6,69,29.97,5.0,North,24.2,36.8,N/A,,Haze,360,2012-12-10 13:55:00
8:15 AM,61.7,48.9,63,29.99,4.0,North,28.8,36.8,N/A,,Haze,10,2012-12-10 14:15:00
8:35 AM,61.0,46.8,59,30.01,-9999.0,North,20.7,33.4,0.02,Rain,Light Rain,10,2012-12-10 14:35:00
8:55 AM,60.4,44.4,56,30.03,5.0,North,25.3,33.4,0.02,,Haze,360,2012-12-10 14:55:00
9:15 AM,59.4,42.3,53,30.05,4.0,North,24.2,34.5,N/A,,Haze,360,2012-12-10 15:15:00
9:35 AM,59.0,40.5,50,30.07,5.0,North,25.3,35.7,N/A,,Haze,350,2012-12-10 15:35:00
9:55 AM,58.3,36.7,45,30.07,5.0,North,24.2,34.5,N/A,,Haze,360,2012-12-10 15:55:00
10:15 AM,58.1,34.3,41,30.09,5.0,North,18.4,24.2,N/A,,Haze,350,2012-12-10 16:15:00
10:35 AM,57.6,31.5,37,30.09,5.0,North,21.9,29.9,N/A,,Haze,350,2012-12-10 16:35:00
10:55 AM,57.4,29.8,35,30.10,5.0,North,17.3,-,N/A,,Haze,350,2012-12-10 16:55:00
11:15 AM,57.6,28.6,33,30.10,7.0,NNW,18.4,23.0,N/A,,Overcast,340,2012-12-10 17:15:00
11:55 AM,57.7,26.1,30,30.10,5.0,NNW,21.9,27.6,N/A,,Haze,340,2012-12-10 17:55:00
12:15 PM,58.3,25.7,29,30.10,7.0,North,17.3,25.3,N/A,,Overcast,360,2012-12-10 18:15:00
12:35 PM,59.4,25.7,28,30.09,5.0,North,18.4,27.6,N/A,,Haze,350,2012-12-10 18:35:00
12:55 PM,59.9,25.5,27,30.08,7.0,North,15.0,25.3,N/A,,Overcast,350,2012-12-10 18:55:00
1:15 PM,60.6,25.7,26,30.07,7.0,North,18.4,23.0,N/A,,Overcast,360,2012-12-10 19:15:00
1:35 PM,62.1,25.3,25,30.07,7.0,NNE,15.0,-,N/A,,Overcast,20,2012-12-10 19:35:00
1:55 PM,62.1,24.3,24,30.05,7.0,North,17.3,21.9,N/A,,Overcast,360,2012-12-10 19:55:00
2:15 PM,61.9,23.2,23,30.05,5.0,North,19.6,24.2,N/A,,Haze,360,2012-12-10 20:15:00
2:35 PM,61.7,22.6,22,30.05,7.0,NNW,19.6,23.0,N/A,,Overcast,340,2012-12-10 20:35:00
3:15 PM,63.7,22.6,21,30.04,7.0,North,11.5,-,N/A,,Clear,10,2012-12-10 21:15:00
3:55 PM,63.3,21.9,21,30.04,5.0,NNE,12.7,18.4,N/A,,Haze,20,2012-12-10 21:55:00
4:15 PM,63.3,22.1,21,30.03,7.0,NNE,15.0,-,N/A,,Clear,20,2012-12-10 22:15:00
4:35 PM,62.8,21.9,21,30.04,5.0,North,10.4,18.4,N/A,,Haze,360,2012-12-10 22:35:00
4:55 PM,62.2,22.5,22,30.04,5.0,NNE,10.4,-,N/A,,Haze,20,2012-12-10 22:55:00
5:15 PM,61.3,22.3,22,30.05,7.0,North,12.7,-,N/A,,Clear,10,2012-12-10 23:15:00
5:35 PM,60.1,23.2,24,30.06,7.0,North,8.1,-,N/A,,Clear,10,2012-12-10 23:35:00
5:55 PM,59.0,23.7,26,30.06,5.0,North,6.9,-,N/A,,Haze,360,2012-12-10 23:55:00
6:15 PM,58.3,24.1,27,30.06,7.0,North,8.1,-,N/A,,Clear,360,2012-12-11 00:15:00
6:35 PM,57.4,24.8,29,30.05,7.0,North,6.9,-,N/A,,Clear,10,2012-12-11 00:35:00
6:55 PM,55.8,26.8,33,30.07,7.0,North,4.6,-,N/A,,Clear,360,2012-12-11 00:55:00
7:15 PM,55.4,26.6,33,30.07,7.0,North,5.8,-,N/A,,Clear,10,2012-12-11 01:15:00
7:35 PM,55.4,26.4,33,30.07,7.0,NNE,4.6,-,N/A,,Clear,20,2012-12-11 01:35:00
7:55 PM,55.8,26.2,32,30.09,7.0,North,5.8,-,N/A,,Clear,10,2012-12-11 01:55:00
8:15 PM,55.8,26.2,32,30.09,7.0,North,5.8,-,N/A,,Clear,10,2012-12-11 02:15:00
8:35 PM,55.2,26.1,33,30.10,7.0,NNE,6.9,-,N/A,,Clear,20,2012-12-11 02:35:00
8:55 PM,54.3,26.1,34,30.11,7.0,North,4.6,-,N/A,,Clear,10,2012-12-11 02:55:00
9:15 PM,52.0,29.7,42,30.10,7.0,North,4.6,-,N/A,,Clear,350,2012-12-11 03:15:00
9:35 PM,51.4,29.7,43,30.10,7.0,North,3.5,-,N/A,,Clear,360,2012-12-11 03:35:00
9:55 PM,52.2,29.3,41,30.11,7.0,Calm,Calm,-,N/A,,Clear,0,2012-12-11 03:55:00
10:15 PM,52.7,28.4,39,30.12,7.0,Calm,Calm,-,N/A,,Clear,0,2012-12-11 04:15:00
10:35 PM,52.0,29.7,42,30.12,7.0,NNW,3.5,-,N/A,,Clear,340,2012-12-11 04:35:00
10:55 PM,51.4,30.6,45,30.12,10.0,North,3.5,-,N/A,,Clear,350,2012-12-11 04:55:00
11:15 PM,50.7,31.6,48,30.12,7.0,North,4.6,-,N/A,,Clear,350,2012-12-11 05:15:00
11:35 PM,51.4,27.9,40,30.11,7.0,NNE,6.9,-,N/A,,Clear,30,2012-12-11 05:35:00
11:55 PM,52.2,27.3,38,30.12,7.0,NNE,6.9,-,N/A,,Clear,20,2012-12-11 05:55:00